Location: Unspecified
(49.9820°N, 20.4363°E)
Time: 14:35:06
(UTC+02:00)

ISS - Pass Details

Date: 25 May 2018
Orbit: 402 x 407 km, 51.6° (Epoch: 22 May)

Event Time Altitude Azimuth Distance (km) Brightness Sun altitude
Rises 22:00:19 0° 259° (W) 2,318 0.4 -11.1°
Reaches altitude 10° 22:02:24 10° 261° (W) 1,459 -0.6 -11.3°
Maximum altitude 22:05:40 76° 348° (NNW) 420 -3.7 -11.6°
Drops below altitude 10° 22:08:56 10° 75° (ENE) 1,460 -1.2 -11.9°
Sets 22:11:02 0° 77° (ENE) 2,320 -0.2 -12.1°
